Time,TemperatureF,DewpointF,PressureIn,WindDirection,WindDirectionDegrees,WindSpeedMPH,WindSpeedGustMPH,Humidity,HourlyPrecipIn,Conditions,Clouds,dailyrainin,SoftwareType,DateUTC
2013-05-26 00:01:00,53.7,17.8,30.17,NW,325,3.0,5.0,24,0.00,,---,0.00,VWS V14.01,2013-05-26 06:01:00,
2013-05-26 00:06:00,53.7,17.8,30.17,NNW,341,2.0,2.0,24,0.00,,---,0.00,VWS V14.01,2013-05-26 06:06:00,
2013-05-26 00:11:00,53.2,19.2,30.17,NNW,346,4.0,4.0,26,0.00,,---,0.00,VWS V14.01,2013-05-26 06:11:00,
2013-05-26 00:16:00,52.9,18.0,30.17,NNE,13,3.0,4.0,25,0.00,,---,0.00,VWS V14.01,2013-05-26 06:16:00,
2013-05-26 00:21:00,52.8,18.0,30.16,NNW,340,2.0,4.0,25,0.00,,---,0.00,VWS V14.01,2013-05-26 06:21:00,
2013-05-26 00:26:00,52.4,18.5,30.17,NNW,342,3.0,5.0,26,0.00,,---,0.00,VWS V14.01,2013-05-26 06:26:00,
2013-05-26 00:31:00,52.0,18.2,30.17,NNW,339,2.0,5.0,26,0.00,,---,0.00,VWS V14.01,2013-05-26 06:31:00,
2013-05-26 00:36:00,51.6,18.7,30.17,NNW,340,2.0,3.0,27,0.00,,---,0.00,VWS V14.01,2013-05-26 06:36:00,
2013-05-26 00:41:00,51.1,18.3,30.17,NNW,346,1.0,3.0,27,0.00,,---,0.00,VWS V14.01,2013-05-26 06:41:00,
2013-05-26 00:46:00,50.5,18.6,30.17,North,354,2.0,3.0,28,0.00,,---,0.00,VWS V14.01,2013-05-26 06:46:00,
2013-05-26 00:51:00,49.8,18.8,30.18,NNW,345,2.0,3.0,29,0.00,,---,0.00,VWS V14.01,2013-05-26 06:51:00,
2013-05-26 00:56:00,49.6,20.2,30.18,NNW,346,3.0,3.0,31,0.00,,---,0.00,VWS V14.01,2013-05-26 06:56:00,
2013-05-26 01:01:00,49.4,18.5,30.17,NNW,347,1.0,3.0,29,0.00,,---,0.00,VWS V14.01,2013-05-26 07:01:00,
2013-05-26 01:06:00,49.9,18.1,30.17,NNW,344,2.0,2.0,28,0.00,,---,0.00,VWS V14.01,2013-05-26 07:06:00,
2013-05-26 01:11:00,50.2,19.2,30.17,NNW,343,1.0,2.0,29,0.00,,---,0.00,VWS V14.01,2013-05-26 07:11:00,
2013-05-26 01:16:00,50.3,18.5,30.17,NNW,347,1.0,2.0,28,0.00,,---,0.00,VWS V14.01,2013-05-26 07:16:00,
2013-05-26 01:21:00,50.5,18.6,30.17,NNW,347,0.0,2.0,28,0.00,,---,0.00,VWS V14.01,2013-05-26 07:21:00,
2013-05-26 01:26:00,50.7,18.8,30.17,NNW,340,2.0,4.0,28,0.00,,---,0.00,VWS V14.01,2013-05-26 07:26:00,
2013-05-26 01:31:00,51.1,18.3,30.17,North,349,0.0,4.0,27,0.00,,---,0.00,VWS V14.01,2013-05-26 07:31:00,
2013-05-26 01:36:00,51.4,18.6,30.17,NNW,340,1.0,2.0,27,0.00,,---,0.00,VWS V14.01,2013-05-26 07:36:00,
2013-05-26 01:41:00,52.2,17.5,30.17,NNW,343,1.0,2.0,25,0.00,,---,0.00,VWS V14.01,2013-05-26 07:41:00,
2013-05-26 01:46:00,52.3,17.5,30.17,North,354,1.0,2.0,25,0.00,,---,0.00,VWS V14.01,2013-05-26 07:46:00,
2013-05-26 01:51:00,52.2,19.2,30.17,NNW,341,0.0,2.0,27,0.00,,---,0.00,VWS V14.01,2013-05-26 07:51:00,
2013-05-26 01:56:00,52.0,19.1,30.16,NNW,346,1.0,2.0,27,0.00,,---,0.00,VWS V14.01,2013-05-26 07:56:00,
2013-05-26 02:01:00,51.7,17.9,30.16,NNW,343,0.0,2.0,26,0.00,,---,0.00,VWS V14.01,2013-05-26 08:01:00,
2013-05-26 02:06:00,51.7,17.0,30.16,SSW,197,1.0,1.0,25,0.00,,---,0.00,VWS V14.01,2013-05-26 08:06:00,
2013-05-26 02:11:00,52.6,16.9,30.16,WNW,284,1.0,2.0,24,0.00,,---,0.00,VWS V14.01,2013-05-26 08:11:00,
2013-05-26 02:16:00,53.6,16.7,30.16,SW,214,1.0,3.0,23,0.00,,---,0.00,VWS V14.01,2013-05-26 08:16:00,
2013-05-26 02:21:00,54.9,16.8,30.16,WSW,253,1.0,3.0,22,0.00,,---,0.00,VWS V14.01,2013-05-26 08:21:00,
2013-05-26 02:26:00,55.6,17.4,30.16,NNW,333,0.0,3.0,22,0.00,,---,0.00,VWS V14.01,2013-05-26 08:26:00,
2013-05-26 02:31:00,56.0,16.6,30.16,WSW,257,1.0,4.0,21,0.00,,---,0.00,VWS V14.01,2013-05-26 08:31:00,
2013-05-26 02:36:00,56.1,16.7,30.16,West,269,0.0,1.0,21,0.00,,---,0.00,VWS V14.01,2013-05-26 08:36:00,
2013-05-26 02:41:00,56.1,16.7,30.16,West,266,0.0,2.0,21,0.00,,---,0.00,VWS V14.01,2013-05-26 08:41:00,
2013-05-26 02:46:00,55.9,16.5,30.16,West,267,3.0,5.0,21,0.00,,---,0.00,VWS V14.01,2013-05-26 08:46:00,
2013-05-26 02:51:00,56.2,16.8,30.16,WNW,283,5.0,7.0,21,0.00,,---,0.00,VWS V14.01,2013-05-26 08:51:00,
2013-05-26 02:56:00,56.3,16.9,30.16,WNW,289,2.0,7.0,21,0.00,,---,0.00,VWS V14.01,2013-05-26 08:56:00,
2013-05-26 03:01:00,56.5,17.1,30.16,WSW,253,2.0,7.0,21,0.00,,---,0.00,VWS V14.01,2013-05-26 09:01:00,
2013-05-26 03:06:00,56.5,17.1,30.16,West,268,1.0,3.0,21,0.00,,---,0.00,VWS V14.01,2013-05-26 09:06:00,
2013-05-26 03:11:00,56.4,17.0,30.16,NNE,18,4.0,4.0,21,0.00,,---,0.00,VWS V14.01,2013-05-26 09:11:00,
2013-05-26 03:16:00,56.5,17.1,30.16,WNW,297,2.0,5.0,21,0.00,,---,0.00,VWS V14.01,2013-05-26 09:16:00,
2013-05-26 03:21:00,56.7,16.1,30.16,West,281,3.0,5.0,20,0.00,,---,0.00,VWS V14.01,2013-05-26 09:21:00,
2013-05-26 03:26:00,56.7,16.1,30.16,NNW,330,2.0,5.0,20,0.00,,---,0.00,VWS V14.01,2013-05-26 09:26:00,
2013-05-26 03:31:00,56.7,16.1,30.16,WSW,251,2.0,5.0,20,0.00,,---,0.00,VWS V14.01,2013-05-26 09:31:00,
2013-05-26 03:36:00,56.6,17.1,30.15,WNW,285,2.0,3.0,21,0.00,,---,0.00,VWS V14.01,2013-05-26 09:36:00,
2013-05-26 03:41:00,56.2,16.8,30.15,North,4,2.0,3.0,21,0.00,,---,0.00,VWS V14.01,2013-05-26 09:41:00,
2013-05-26 03:46:00,55.7,17.5,30.15,NE,34,1.0,3.0,22,0.00,,---,0.00,VWS V14.01,2013-05-26 09:46:00,
2013-05-26 03:51:00,55.1,17.0,30.15,SE,140,1.0,3.0,22,0.00,,---,0.00,VWS V14.01,2013-05-26 09:51:00,
2013-05-26 03:56:00,54.6,16.5,30.14,WSW,244,0.0,4.0,22,0.00,,---,0.00,VWS V14.01,2013-05-26 09:56:00,
2013-05-26 04:01:00,55.3,16.0,30.14,NW,324,3.0,8.0,21,0.00,,---,0.00,VWS V14.01,2013-05-26 10:01:00,
2013-05-26 04:06:00,56.3,15.8,30.13,West,273,2.0,3.0,20,0.00,,---,0.00,VWS V14.01,2013-05-26 10:06:00,
2013-05-26 04:11:00,57.0,15.2,30.13,West,259,5.0,6.0,19,0.00,,---,0.00,VWS V14.01,2013-05-26 10:11:00,
2013-05-26 04:16:00,57.3,15.4,30.13,SSW,200,2.0,6.0,19,0.00,,---,0.00,VWS V14.01,2013-05-26 10:16:00,
2013-05-26 04:21:00,57.4,15.5,30.14,West,276,2.0,8.0,19,0.00,,---,0.00,VWS V14.01,2013-05-26 10:21:00,
2013-05-26 04:25:00,57.2,16.5,30.14,ESE,107,1.0,8.0,20,0.00,,---,0.00,VWS V14.01,2013-05-26 10:25:00,
2013-05-26 04:30:00,56.7,16.1,30.14,SE,132,1.0,8.0,20,0.00,,---,0.00,VWS V14.01,2013-05-26 10:30:00,
2013-05-26 04:35:00,56.3,18.0,30.15,SE,127,2.0,2.0,22,0.00,,---,0.00,VWS V14.01,2013-05-26 10:35:00,
2013-05-26 04:40:00,55.2,18.1,30.15,WNW,293,0.0,2.0,23,0.00,,---,0.00,VWS V14.01,2013-05-26 10:40:00,
2013-05-26 04:45:00,54.5,18.5,30.15,NW,322,1.0,2.0,24,0.00,,---,0.00,VWS V14.01,2013-05-26 10:45:00,
2013-05-26 04:50:00,53.8,18.8,30.15,NNW,330,1.0,2.0,25,0.00,,---,0.00,VWS V14.01,2013-05-26 10:50:00,
2013-05-26 04:55:00,53.3,17.5,30.15,ESE,115,0.0,3.0,24,0.00,,---,0.00,VWS V14.01,2013-05-26 10:55:00,
2013-05-26 05:00:00,53.0,19.0,30.15,NNW,338,1.0,3.0,26,0.00,,---,0.00,VWS V14.01,2013-05-26 11:00:00,
2013-05-26 05:05:00,52.7,17.9,30.15,NNW,344,0.0,0.0,25,0.00,,---,0.00,VWS V14.01,2013-05-26 11:05:00,
2013-05-26 05:10:00,52.4,18.5,30.15,NNW,345,1.0,2.0,26,0.00,,---,0.00,VWS V14.01,2013-05-26 11:10:00,
2013-05-26 05:15:00,52.3,19.3,30.15,NNW,333,1.0,2.0,27,0.00,,---,0.00,VWS V14.01,2013-05-26 11:15:00,
2013-05-26 05:20:00,52.3,19.3,30.15,NNW,347,2.0,2.0,27,0.00,,---,0.00,VWS V14.01,2013-05-26 11:20:00,
2013-05-26 05:25:00,51.7,17.9,30.16,North,352,1.0,3.0,26,0.00,,---,0.00,VWS V14.01,2013-05-26 11:25:00,
2013-05-26 05:30:00,51.2,19.2,30.16,North,352,0.0,3.0,28,0.00,,---,0.00,VWS V14.01,2013-05-26 11:30:00,
2013-05-26 05:35:00,50.9,19.8,30.16,NNW,345,0.0,0.0,29,0.00,,---,0.00,VWS V14.01,2013-05-26 11:35:00,
2013-05-26 05:40:00,50.9,19.8,30.16,NNW,345,0.0,0.0,29,0.00,,---,0.00,VWS V14.01,2013-05-26 11:40:00,
2013-05-26 05:45:00,50.9,19.8,30.16,NNW,345,0.0,0.0,29,0.00,,---,0.00,VWS V14.01,2013-05-26 11:45:00,
2013-05-26 05:50:00,50.9,19.8,30.16,NNW,345,0.0,0.0,29,0.00,,---,0.00,VWS V14.01,2013-05-26 11:50:00,
2013-05-26 05:55:00,50.9,19.8,30.16,NNW,345,0.0,0.0,29,0.00,,---,0.00,VWS V14.01,2013-05-26 11:55:00,
2013-05-26 06:00:00,50.9,19.8,30.16,NNW,345,0.0,0.0,29,0.00,,---,0.00,VWS V14.01,2013-05-26 12:00:00,
2013-05-26 06:05:00,50.9,19.8,30.17,NNW,345,0.0,0.0,29,0.00,,---,0.00,VWS V14.01,2013-05-26 12:05:00,
2013-05-26 06:10:00,50.9,19.8,30.17,NNW,345,0.0,0.0,29,0.00,,---,0.00,VWS V14.01,2013-05-26 12:10:00,
2013-05-26 06:15:00,50.9,19.8,30.17,NNW,345,0.0,0.0,29,0.00,,---,0.00,VWS V14.01,2013-05-26 12:15:00,
2013-05-26 06:20:00,50.9,19.8,30.17,NNW,345,0.0,0.0,29,0.00,,---,0.00,VWS V14.01,2013-05-26 12:20:00,
2013-05-26 06:25:00,50.9,19.8,30.17,NNW,345,0.0,0.0,29,0.00,,---,0.00,VWS V14.01,2013-05-26 12:25:00,
2013-05-26 06:30:00,50.9,19.8,30.17,NNW,345,0.0,0.0,29,0.00,,---,0.00,VWS V14.01,2013-05-26 12:30:00,
2013-05-26 06:35:00,50.9,19.8,30.17,NNW,345,0.0,0.0,29,0.00,,---,0.00,VWS V14.01,2013-05-26 12:35:00,
2013-05-26 06:40:00,50.9,19.8,30.17,NNW,345,0.0,0.0,29,0.00,,---,0.00,VWS V14.01,2013-05-26 12:40:00,
2013-05-26 06:45:00,50.9,19.8,30.17,NNW,345,0.0,0.0,29,0.00,,---,0.00,VWS V14.01,2013-05-26 12:45:00,
2013-05-26 06:50:00,50.9,19.8,30.17,NNW,345,0.0,0.0,29,0.00,,---,0.00,VWS V14.01,2013-05-26 12:50:00,
2013-05-26 06:55:00,55.2,20.9,30.17,NNW,345,2.0,2.0,26,0.00,,---,0.00,VWS V14.01,2013-05-26 12:55:00,
2013-05-26 07:00:00,54.6,19.5,30.17,NNW,330,1.0,3.0,25,0.00,,---,0.00,VWS V14.01,2013-05-26 13:00:00,
2013-05-26 07:05:00,54.6,22.2,30.17,NNW,340,1.0,3.0,28,0.00,,---,0.00,VWS V14.01,2013-05-26 13:05:00,
2013-05-26 07:10:00,54.5,22.1,30.17,NNW,342,1.0,3.0,28,0.00,,---,0.00,VWS V14.01,2013-05-26 13:10:00,
2013-05-26 07:15:00,54.5,25.3,30.17,NNW,340,0.0,3.0,32,0.00,,---,0.00,VWS V14.01,2013-05-26 13:15:00,
2013-05-26 07:20:00,54.3,27.9,30.17,NNW,343,0.0,3.0,36,0.00,,---,0.00,VWS V14.01,2013-05-26 13:20:00,
2013-05-26 07:25:00,54.1,27.1,30.17,NNW,343,0.0,3.0,35,0.00,,---,0.00,VWS V14.01,2013-05-26 13:25:00,
2013-05-26 07:30:00,54.3,25.8,30.17,NNW,343,0.0,3.0,33,0.00,,---,0.00,VWS V14.01,2013-05-26 13:30:00,
2013-05-26 07:35:00,54.9,22.4,30.17,NNW,343,0.0,0.0,28,0.00,,---,0.00,VWS V14.01,2013-05-26 13:35:00,
2013-05-26 07:40:00,55.5,22.1,30.17,NNW,343,0.0,1.0,27,0.00,,---,0.00,VWS V14.01,2013-05-26 13:40:00,
2013-05-26 07:45:00,55.8,24.9,30.17,East,85,1.0,2.0,30,0.00,,---,0.00,VWS V14.01,2013-05-26 13:45:00,
2013-05-26 07:50:00,56.1,22.6,30.17,ENE,77,1.0,2.0,27,0.00,,---,0.00,VWS V14.01,2013-05-26 13:50:00,
2013-05-26 07:55:00,56.2,20.9,30.17,East,79,0.0,3.0,25,0.00,,---,0.00,VWS V14.01,2013-05-26 13:55:00,
2013-05-26 08:00:00,56.3,21.0,30.17,NNE,23,1.0,3.0,25,0.00,,---,0.00,VWS V14.01,2013-05-26 14:00:00,
2013-05-26 08:05:00,56.5,20.2,30.17,SSE,166,1.0,2.0,24,0.00,,---,0.00,VWS V14.01,2013-05-26 14:05:00,
2013-05-26 08:10:00,56.7,20.3,30.17,ESE,110,2.0,3.0,24,0.00,,---,0.00,VWS V14.01,2013-05-26 14:10:00,
2013-05-26 08:15:00,56.7,19.3,30.17,West,262,2.0,4.0,23,0.00,,---,0.00,VWS V14.01,2013-05-26 14:15:00,
2013-05-26 08:20:00,56.9,20.5,30.18,WSW,255,4.0,6.0,24,0.00,,---,0.00,VWS V14.01,2013-05-26 14:20:00,
2013-05-26 08:25:00,56.7,22.2,30.18,WSW,256,2.0,7.0,26,0.00,,---,0.00,VWS V14.01,2013-05-26 14:25:00,
2013-05-26 08:30:00,56.5,22.0,30.18,WSW,250,3.0,9.0,26,0.00,,---,0.00,VWS V14.01,2013-05-26 14:30:00,
2013-05-26 08:35:00,56.3,21.9,30.18,WSW,248,4.0,6.0,26,0.00,,---,0.00,VWS V14.01,2013-05-26 14:35:00,
2013-05-26 08:40:00,56.3,22.8,30.18,WSW,248,2.0,6.0,27,0.00,,---,0.00,VWS V14.01,2013-05-26 14:40:00,
2013-05-26 08:45:00,56.4,21.0,30.18,WSW,250,2.0,6.0,25,0.00,,---,0.00,VWS V14.01,2013-05-26 14:45:00,
2013-05-26 08:50:00,56.6,21.2,30.19,West,260,2.0,6.0,25,0.00,,---,0.00,VWS V14.01,2013-05-26 14:50:00,
2013-05-26 08:55:00,56.7,22.2,30.19,WSW,252,2.0,6.0,26,0.00,,---,0.00,VWS V14.01,2013-05-26 14:55:00,
2013-05-26 09:00:00,56.8,21.4,30.19,WSW,253,1.0,6.0,25,0.00,,---,0.00,VWS V14.01,2013-05-26 15:00:00,
2013-05-26 09:05:00,57.0,21.5,30.19,WSW,256,1.0,2.0,25,0.00,,---,0.00,VWS V14.01,2013-05-26 15:05:00,
2013-05-26 09:10:00,57.1,20.7,30.20,West,260,2.0,4.0,24,0.00,,---,0.00,VWS V14.01,2013-05-26 15:10:00,
2013-05-26 09:15:00,57.3,20.8,30.20,WSW,253,0.0,4.0,24,0.00,,---,0.00,VWS V14.01,2013-05-26 15:15:00,
2013-05-26 09:20:00,57.5,21.0,30.20,WSW,243,0.0,4.0,24,0.00,,---,0.00,VWS V14.01,2013-05-26 15:20:00,
2013-05-26 09:25:00,57.6,23.0,30.20,WSW,249,1.0,4.0,26,0.00,,---,0.00,VWS V14.01,2013-05-26 15:25:00,
2013-05-26 09:30:00,57.7,23.1,30.20,West,271,0.0,4.0,26,0.00,,---,0.00,VWS V14.01,2013-05-26 15:30:00,
2013-05-26 09:35:00,57.9,24.1,30.20,West,259,0.0,1.0,27,0.00,,---,0.00,VWS V14.01,2013-05-26 15:35:00,
2013-05-26 09:40:00,58.2,25.3,30.20,West,259,0.0,1.0,28,0.00,,---,0.00,VWS V14.01,2013-05-26 15:40:00,
2013-05-26 09:45:00,58.5,24.7,30.20,SE,144,0.0,1.0,27,0.00,,---,0.00,VWS V14.01,2013-05-26 15:45:00,
2013-05-26 09:50:00,58.4,25.5,30.20,SW,233,0.0,1.0,28,0.00,,---,0.00,VWS V14.01,2013-05-26 15:50:00,
2013-05-26 09:55:00,58.3,24.5,30.20,WSW,256,0.0,1.0,27,0.00,,---,0.00,VWS V14.01,2013-05-26 15:55:00,
2013-05-26 10:00:00,58.7,24.8,30.19,SSE,155,0.0,1.0,27,0.00,,---,0.00,VWS V14.01,2013-05-26 16:00:00,
2013-05-26 10:05:00,59.6,23.8,30.19,SW,217,0.0,0.0,25,0.00,,---,0.00,VWS V14.01,2013-05-26 16:05:00,
2013-05-26 10:10:00,60.5,24.5,30.20,SSE,156,1.0,3.0,25,0.00,,---,0.00,VWS V14.01,2013-05-26 16:10:00,
2013-05-26 10:15:00,62.0,18.0,30.19,East,96,2.0,4.0,18,0.00,,---,0.00,VWS V14.01,2013-05-26 16:15:00,
2013-05-26 10:20:00,63.0,20.1,30.19,SW,232,1.0,4.0,19,0.00,,---,0.00,VWS V14.01,2013-05-26 16:20:00,
2013-05-26 10:25:00,63.8,20.8,30.19,NNW,328,1.0,4.0,19,0.00,,---,0.00,VWS V14.01,2013-05-26 16:25:00,
2013-05-26 10:30:00,65.0,21.8,30.19,ESE,109,6.0,6.0,19,0.00,,---,0.00,VWS V14.01,2013-05-26 16:30:00,
2013-05-26 10:35:00,65.9,19.9,30.19,SSE,160,3.0,4.0,17,0.00,,---,0.00,VWS V14.01,2013-05-26 16:35:00,
2013-05-26 10:40:00,66.6,19.0,30.19,NW,304,1.0,4.0,16,0.00,,---,0.00,VWS V14.01,2013-05-26 16:40:00,
2013-05-26 10:45:00,67.1,17.9,30.19,WSW,255,0.0,5.0,15,0.00,,---,0.00,VWS V14.01,2013-05-26 16:45:00,
2013-05-26 10:50:00,67.3,18.1,30.18,NNW,330,0.0,5.0,15,0.00,,---,0.00,VWS V14.01,2013-05-26 16:50:00,
2013-05-26 10:55:00,67.9,20.1,30.18,North,356,1.0,5.0,16,0.00,,---,0.00,VWS V14.01,2013-05-26 16:55:00,
2013-05-26 11:00:00,68.2,18.8,30.18,WSW,257,1.0,6.0,15,0.00,,---,0.00,VWS V14.01,2013-05-26 17:00:00,
2013-05-26 11:05:00,67.5,16.7,30.18,SW,236,0.0,3.0,14,0.00,,---,0.00,VWS V14.01,2013-05-26 17:05:00,
2013-05-26 11:10:00,67.4,16.6,30.18,SSW,197,3.0,5.0,14,0.00,,---,0.00,VWS V14.01,2013-05-26 17:10:00,
2013-05-26 11:15:00,67.3,16.5,30.18,ESE,105,3.0,5.0,14,0.00,,---,0.00,VWS V14.01,2013-05-26 17:15:00,
2013-05-26 11:20:00,67.7,16.8,30.18,SSW,210,2.0,6.0,14,0.00,,---,0.00,VWS V14.01,2013-05-26 17:20:00,
2013-05-26 11:25:00,68.3,15.6,30.18,South,173,4.0,6.0,13,0.00,,---,0.00,VWS V14.01,2013-05-26 17:25:00,
2013-05-26 11:30:00,67.7,15.1,30.18,SSW,207,1.0,7.0,13,0.00,,---,0.00,VWS V14.01,2013-05-26 17:30:00,
2013-05-26 11:35:00,68.1,13.6,30.18,WSW,250,6.0,6.0,12,0.00,,---,0.00,VWS V14.01,2013-05-26 17:35:00,
2013-05-26 11:40:00,67.6,16.7,30.18,South,174,3.0,6.0,14,0.00,,---,0.00,VWS V14.01,2013-05-26 17:40:00,
2013-05-26 11:45:00,68.0,11.6,30.18,WSW,240,2.0,6.0,11,0.00,,---,0.00,VWS V14.01,2013-05-26 17:45:00,
2013-05-26 11:50:00,68.9,16.1,30.18,SE,131,1.0,8.0,13,0.00,,---,0.00,VWS V14.01,2013-05-26 17:50:00,
2013-05-26 11:55:00,69.6,14.8,30.18,SW,217,3.0,9.0,12,0.00,,---,0.00,VWS V14.01,2013-05-26 17:55:00,
2013-05-26 12:00:00,69.4,14.6,30.18,SSW,213,3.0,9.0,12,0.00,,---,0.00,VWS V14.01,2013-05-26 18:00:00,
2013-05-26 12:05:00,69.7,16.7,30.17,SE,138,5.0,5.0,13,0.00,,---,0.00,VWS V14.01,2013-05-26 18:05:00,
2013-05-26 12:10:00,69.4,18.2,30.17,West,276,3.0,6.0,14,0.00,,---,0.00,VWS V14.01,2013-05-26 18:10:00,
2013-05-26 12:15:00,69.9,15.0,30.17,West,263,2.0,6.0,12,0.00,,---,0.00,VWS V14.01,2013-05-26 18:15:00,
2013-05-26 12:20:00,69.9,15.0,30.17,NNE,15,2.0,6.0,12,0.00,,---,0.00,VWS V14.01,2013-05-26 18:20:00,
2013-05-26 12:25:00,69.9,16.9,30.17,West,274,2.0,6.0,13,0.00,,---,0.00,VWS V14.01,2013-05-26 18:25:00,
2013-05-26 12:30:00,69.9,16.9,30.17,SW,218,1.0,6.0,13,0.00,,---,0.00,VWS V14.01,2013-05-26 18:30:00,
2013-05-26 12:35:00,69.1,17.9,30.17,SW,233,2.0,4.0,14,0.00,,---,0.00,VWS V14.01,2013-05-26 18:35:00,
2013-05-26 12:40:00,68.6,17.5,30.16,SW,233,3.0,6.0,14,0.00,,---,0.00,VWS V14.01,2013-05-26 18:40:00,
2013-05-26 12:45:00,67.7,21.4,30.17,SSW,200,2.0,8.0,17,0.00,,---,0.00,VWS V14.01,2013-05-26 18:45:00,
2013-05-26 12:50:00,68.8,20.8,30.16,WSW,256,2.0,8.0,16,0.00,,---,0.00,VWS V14.01,2013-05-26 18:50:00,
2013-05-26 12:55:00,69.0,17.9,30.16,WSW,246,2.0,8.0,14,0.00,,---,0.00,VWS V14.01,2013-05-26 18:55:00,
2013-05-26 13:00:00,68.8,16.0,30.16,South,183,4.0,8.0,13,0.00,,---,0.00,VWS V14.01,2013-05-26 19:00:00,
2013-05-26 13:05:00,69.3,21.2,30.16,West,270,4.0,6.0,16,0.00,,---,0.00,VWS V14.01,2013-05-26 19:05:00,
2013-05-26 13:10:00,68.7,19.2,30.15,SW,222,1.0,8.0,15,0.00,,---,0.00,VWS V14.01,2013-05-26 19:10:00,
2013-05-26 13:15:00,69.0,17.9,30.15,West,272,2.0,8.0,14,0.00,,---,0.00,VWS V14.01,2013-05-26 19:15:00,
2013-05-26 13:20:00,69.4,18.2,30.15,SSW,203,1.0,8.0,14,0.00,,---,0.00,VWS V14.01,2013-05-26 19:20:00,
2013-05-26 13:25:00,70.3,22.0,30.15,WSW,243,3.0,8.0,16,0.00,,---,0.00,VWS V14.01,2013-05-26 19:25:00,
2013-05-26 13:30:00,70.9,19.4,30.15,South,169,2.0,8.0,14,0.00,,---,0.00,VWS V14.01,2013-05-26 19:30:00,
2013-05-26 13:35:00,69.8,18.5,30.14,WNW,282,2.0,2.0,14,0.00,,---,0.00,VWS V14.01,2013-05-26 19:35:00,
2013-05-26 13:40:00,69.3,18.1,30.14,SW,226,1.0,5.0,14,0.00,,---,0.00,VWS V14.01,2013-05-26 19:40:00,
2013-05-26 13:45:00,69.3,21.2,30.14,SW,236,0.0,7.0,16,0.00,,---,0.00,VWS V14.01,2013-05-26 19:45:00,
2013-05-26 13:50:00,69.3,19.7,30.14,SW,236,1.0,7.0,15,0.00,,---,0.00,VWS V14.01,2013-05-26 19:50:00,
2013-05-26 13:55:00,69.4,18.2,30.14,SSW,197,1.0,7.0,14,0.00,,---,0.00,VWS V14.01,2013-05-26 19:55:00,
2013-05-26 14:00:00,69.9,20.2,30.14,WSW,249,2.0,9.0,15,0.00,,---,0.00,VWS V14.01,2013-05-26 20:00:00,
2013-05-26 14:05:00,69.3,22.6,30.14,ESE,122,0.0,3.0,17,0.00,,---,0.00,VWS V14.01,2013-05-26 20:05:00,
2013-05-26 14:10:00,69.5,24.2,30.14,ESE,122,1.0,3.0,18,0.00,,---,0.00,VWS V14.01,2013-05-26 20:10:00,
2013-05-26 14:15:00,69.7,23.0,30.14,ESE,117,0.0,3.0,17,0.00,,---,0.00,VWS V14.01,2013-05-26 20:15:00,
2013-05-26 14:20:00,69.8,23.1,30.14,SE,124,1.0,3.0,17,0.00,,---,0.00,VWS V14.01,2013-05-26 20:20:00,
2013-05-26 14:25:00,69.3,24.0,30.14,SE,129,2.0,4.0,18,0.00,,---,0.00,VWS V14.01,2013-05-26 20:25:00,
2013-05-26 14:30:00,68.1,23.0,30.14,SE,143,2.0,5.0,18,0.00,,---,0.00,VWS V14.01,2013-05-26 20:30:00,
2013-05-26 14:35:00,67.2,22.3,30.15,SSE,148,4.0,5.0,18,0.00,,---,0.00,VWS V14.01,2013-05-26 20:35:00,
2013-05-26 14:40:00,66.5,23.0,30.14,ESE,120,1.0,5.0,19,0.00,,---,0.00,VWS V14.01,2013-05-26 20:40:00,
2013-05-26 14:45:00,66.0,22.6,30.14,SE,134,3.0,5.0,19,0.00,,---,0.00,VWS V14.01,2013-05-26 20:45:00,
2013-05-26 14:50:00,65.5,23.4,30.15,SE,142,2.0,5.0,20,0.00,,---,0.00,VWS V14.01,2013-05-26 20:50:00,
2013-05-26 14:55:00,65.1,23.1,30.15,SE,132,2.0,5.0,20,0.00,,---,0.00,VWS V14.01,2013-05-26 20:55:00,
2013-05-26 15:00:00,64.7,22.7,30.15,East,89,0.0,5.0,20,0.00,,---,0.00,VWS V14.01,2013-05-26 21:00:00,
2013-05-26 15:05:00,64.5,22.6,30.15,SE,127,3.0,4.0,20,0.00,,---,0.00,VWS V14.01,2013-05-26 21:05:00,
2013-05-26 15:10:00,64.5,23.7,30.15,SE,130,1.0,4.0,21,0.00,,---,0.00,VWS V14.01,2013-05-26 21:10:00,
2013-05-26 15:15:00,65.0,24.1,30.15,SE,136,1.0,4.0,21,0.00,,---,0.00,VWS V14.01,2013-05-26 21:15:00,
2013-05-26 15:20:00,65.6,25.8,30.15,ESE,110,1.0,4.0,22,0.00,,---,0.00,VWS V14.01,2013-05-26 21:20:00,
2013-05-26 15:25:00,65.9,24.9,30.15,West,276,0.0,4.0,21,0.00,,---,0.00,VWS V14.01,2013-05-26 21:25:00,
2013-05-26 15:30:00,65.9,24.9,30.15,ESE,120,0.0,4.0,21,0.00,,---,0.00,VWS V14.01,2013-05-26 21:30:00,
2013-05-26 15:35:00,65.6,26.8,30.14,East,95,1.0,1.0,23,0.00,,---,0.00,VWS V14.01,2013-05-26 21:35:00,
2013-05-26 15:40:00,65.3,27.6,30.14,ESE,113,2.0,2.0,24,0.00,,---,0.00,VWS V14.01,2013-05-26 21:40:00,
2013-05-26 15:45:00,65.0,28.4,30.14,West,267,1.0,2.0,25,0.00,,---,0.00,VWS V14.01,2013-05-26 21:45:00,
2013-05-26 15:50:00,64.8,29.1,30.14,SSW,205,0.0,2.0,26,0.00,,---,0.00,VWS V14.01,2013-05-26 21:50:00,
2013-05-26 15:55:00,64.8,28.2,30.14,NW,314,0.0,3.0,25,0.00,,---,0.00,VWS V14.01,2013-05-26 21:55:00,
2013-05-26 16:00:00,64.7,28.1,30.15,East,92,0.0,3.0,25,0.00,,---,0.00,VWS V14.01,2013-05-26 22:00:00,
2013-05-26 16:05:00,64.5,26.9,30.14,NNW,340,0.0,0.0,24,0.00,,---,0.00,VWS V14.01,2013-05-26 22:05:00,
2013-05-26 16:10:00,64.3,28.7,30.14,SSW,205,2.0,3.0,26,0.00,,---,0.00,VWS V14.01,2013-05-26 22:10:00,
2013-05-26 16:15:00,63.8,25.3,30.15,SSE,158,2.0,9.0,23,0.00,,---,0.00,VWS V14.01,2013-05-26 22:15:00,
2013-05-26 16:20:00,63.6,27.2,30.14,ESE,120,0.0,9.0,25,0.00,,---,0.00,VWS V14.01,2013-05-26 22:20:00,
2013-05-26 16:25:00,63.8,27.3,30.14,ESE,123,2.0,9.0,25,0.00,,---,0.00,VWS V14.01,2013-05-26 22:25:00,
2013-05-26 16:30:00,63.9,27.4,30.14,ESE,110,2.0,9.0,25,0.00,,---,0.00,VWS V14.01,2013-05-26 22:30:00,
2013-05-26 16:35:00,64.0,26.5,30.15,ESE,120,1.0,2.0,24,0.00,,---,0.00,VWS V14.01,2013-05-26 22:35:00,
2013-05-26 16:40:00,64.1,27.6,30.15,SW,222,0.0,2.0,25,0.00,,---,0.00,VWS V14.01,2013-05-26 22:40:00,
2013-05-26 16:45:00,64.0,26.5,30.15,ESE,117,0.0,3.0,24,0.00,,---,0.00,VWS V14.01,2013-05-26 22:45:00,
2013-05-26 16:50:00,63.9,27.4,30.15,NNW,330,1.0,4.0,25,0.00,,---,0.00,VWS V14.01,2013-05-26 22:50:00,
2013-05-26 16:55:00,64.2,27.7,30.14,SE,133,4.0,8.0,25,0.00,,---,0.00,VWS V14.01,2013-05-26 22:55:00,
2013-05-26 17:00:00,63.9,28.4,30.15,SE,127,1.0,9.0,26,0.00,,---,0.00,VWS V14.01,2013-05-26 23:00:00,
2013-05-26 17:05:00,63.7,27.2,30.14,East,86,1.0,2.0,25,0.00,,---,0.00,VWS V14.01,2013-05-26 23:05:00,
2013-05-26 17:10:00,63.5,28.0,30.15,ESE,117,1.0,3.0,26,0.00,,---,0.00,VWS V14.01,2013-05-26 23:10:00,
2013-05-26 17:15:00,63.2,28.7,30.15,WSW,250,0.0,5.0,27,0.00,,---,0.00,VWS V14.01,2013-05-26 23:15:00,
2013-05-26 17:20:00,62.8,28.4,30.15,ESE,105,0.0,5.0,27,0.00,,---,0.00,VWS V14.01,2013-05-26 23:20:00,
2013-05-26 17:25:00,62.4,28.0,30.15,ESE,110,0.0,5.0,27,0.00,,---,0.00,VWS V14.01,2013-05-26 23:25:00,
2013-05-26 17:30:00,62.2,27.8,30.15,ESE,116,1.0,5.0,27,0.00,,---,0.00,VWS V14.01,2013-05-26 23:30:00,
2013-05-26 17:35:00,61.9,27.6,30.15,SE,128,0.0,0.0,27,0.00,,---,0.00,VWS V14.01,2013-05-26 23:35:00,
2013-05-26 17:40:00,61.8,28.4,30.15,ESE,122,0.0,1.0,28,0.00,,---,0.00,VWS V14.01,2013-05-26 23:40:00,
2013-05-26 17:45:00,61.7,28.3,30.15,ESE,120,0.0,1.0,28,0.00,,---,0.00,VWS V14.01,2013-05-26 23:45:00,
2013-05-26 17:50:00,61.5,29.0,30.15,ESE,122,1.0,5.0,29,0.00,,---,0.00,VWS V14.01,2013-05-26 23:50:00,
2013-05-26 17:55:00,61.1,29.5,30.15,ESE,120,1.0,5.0,30,0.00,,---,0.00,VWS V14.01,2013-05-26 23:55:00,
2013-05-26 18:00:00,60.8,30.8,30.15,ESE,115,2.0,5.0,32,0.00,,---,0.00,VWS V14.01,2013-05-27 00:00:00,
2013-05-26 18:05:00,60.7,32.2,30.15,ESE,110,2.0,3.0,34,0.00,,---,0.00,VWS V14.01,2013-05-27 00:05:00,
2013-05-26 18:10:00,60.8,33.0,30.14,ESE,110,1.0,3.0,35,0.00,,---,0.00,VWS V14.01,2013-05-27 00:10:00,
2013-05-26 18:15:00,60.9,33.1,30.14,SE,139,2.0,4.0,35,0.00,,---,0.00,VWS V14.01,2013-05-27 00:15:00,
2013-05-26 18:20:00,61.2,28.7,30.14,SE,134,4.0,10.0,29,0.00,,---,0.00,VWS V14.01,2013-05-27 00:20:00,
2013-05-26 18:25:00,61.7,29.1,30.14,SE,124,1.0,10.0,29,0.00,,---,0.00,VWS V14.01,2013-05-27 00:25:00,
2013-05-26 18:30:00,61.8,27.5,30.14,ESE,120,1.0,10.0,27,0.00,,---,0.00,VWS V14.01,2013-05-27 00:30:00,
2013-05-26 18:35:00,61.7,30.0,30.14,SSE,151,2.0,2.0,30,0.00,,---,0.00,VWS V14.01,2013-05-27 00:35:00,
2013-05-26 18:40:00,61.2,28.7,30.14,SE,127,0.0,4.0,29,0.00,,---,0.00,VWS V14.01,2013-05-27 00:40:00,
2013-05-26 18:45:00,61.0,30.2,30.14,SE,127,0.0,4.0,31,0.00,,---,0.00,VWS V14.01,2013-05-27 00:45:00,
2013-05-26 18:50:00,60.8,28.4,30.14,SSW,200,2.0,6.0,29,0.00,,---,0.00,VWS V14.01,2013-05-27 00:50:00,
2013-05-26 18:55:00,60.8,27.5,30.14,SE,142,2.0,6.0,28,0.00,,---,0.00,VWS V14.01,2013-05-27 00:55:00,
2013-05-26 19:00:00,60.6,28.2,30.14,SSE,158,1.0,6.0,29,0.00,,---,0.00,VWS V14.01,2013-05-27 01:00:00,
2013-05-26 19:05:00,60.3,28.8,30.15,South,181,3.0,4.0,30,0.00,,---,0.00,VWS V14.01,2013-05-27 01:05:00,
2013-05-26 19:10:00,60.2,27.9,30.15,SSE,148,4.0,8.0,29,0.00,,---,0.00,VWS V14.01,2013-05-27 01:10:00,
2013-05-26 19:15:00,60.2,27.9,30.15,ESE,105,3.0,10.0,29,0.00,,---,0.00,VWS V14.01,2013-05-27 01:15:00,
2013-05-26 19:20:00,60.1,28.6,30.16,SE,135,4.0,10.0,30,0.00,,---,0.00,VWS V14.01,2013-05-27 01:20:00,
2013-05-26 19:25:00,59.7,29.8,30.16,SE,133,6.0,10.0,32,0.00,,---,0.00,VWS V14.01,2013-05-27 01:25:00,
2013-05-26 19:30:00,59.1,30.8,30.16,SE,134,5.0,10.0,34,0.00,,---,0.00,VWS V14.01,2013-05-27 01:30:00,
2013-05-26 19:35:00,58.3,30.8,30.16,SSE,168,6.0,10.0,35,0.00,,---,0.00,VWS V14.01,2013-05-27 01:35:00,
2013-05-26 19:40:00,57.4,32.0,30.15,SW,228,6.0,10.0,38,0.00,,---,0.00,VWS V14.01,2013-05-27 01:40:00,
2013-05-26 19:45:00,56.9,31.6,30.15,SSW,208,2.0,10.0,38,0.00,,---,0.00,VWS V14.01,2013-05-27 01:45:00,
2013-05-26 19:50:00,56.2,32.2,30.15,SSW,198,3.0,10.0,40,0.00,,---,0.00,VWS V14.01,2013-05-27 01:50:00,
2013-05-26 19:55:00,55.7,32.4,30.15,West,271,4.0,10.0,41,0.00,,---,0.00,VWS V14.01,2013-05-27 01:55:00,
2013-05-26 20:00:00,55.1,32.4,30.15,SSW,200,2.0,10.0,42,0.00,,---,0.00,VWS V14.01,2013-05-27 02:00:00,
2013-05-26 20:05:00,54.9,32.3,30.15,SSW,210,2.0,2.0,42,0.00,,---,0.00,VWS V14.01,2013-05-27 02:05:00,
2013-05-26 20:10:00,55.0,31.8,30.15,West,274,3.0,4.0,41,0.00,,---,0.00,VWS V14.01,2013-05-27 02:10:00,
2013-05-26 20:15:00,55.0,32.3,30.15,WSW,247,1.0,4.0,42,0.00,,---,0.00,VWS V14.01,2013-05-27 02:15:00,
2013-05-26 20:20:00,54.7,32.1,30.15,SW,219,2.0,4.0,42,0.00,,---,0.00,VWS V14.01,2013-05-27 02:20:00,
2013-05-26 20:25:00,55.0,31.1,30.16,South,184,2.0,5.0,40,0.00,,---,0.00,VWS V14.01,2013-05-27 02:25:00,
2013-05-26 20:30:00,55.8,30.6,30.15,SW,226,5.0,6.0,38,0.00,,---,0.00,VWS V14.01,2013-05-27 02:30:00,
2013-05-26 20:35:00,56.3,30.4,30.14,South,184,5.0,5.0,37,0.00,,---,0.00,VWS V14.01,2013-05-27 02:35:00,
2013-05-26 20:40:00,56.3,30.4,30.14,South,173,1.0,5.0,37,0.00,,---,0.00,VWS V14.01,2013-05-27 02:40:00,
2013-05-26 20:45:00,56.0,30.8,30.15,WSW,256,3.0,6.0,38,0.00,,---,0.00,VWS V14.01,2013-05-27 02:45:00,
2013-05-26 20:50:00,55.9,30.0,30.16,South,190,2.0,10.0,37,0.00,,---,0.00,VWS V14.01,2013-05-27 02:50:00,
2013-05-26 20:55:00,55.8,29.9,30.15,SE,142,2.0,10.0,37,0.00,,---,0.00,VWS V14.01,2013-05-27 02:55:00,
2013-05-26 21:00:00,55.7,29.2,30.15,WSW,256,2.0,10.0,36,0.00,,---,0.00,VWS V14.01,2013-05-27 03:00:00,
2013-05-26 21:05:00,55.6,29.8,30.14,WNW,300,1.0,1.0,37,0.00,,---,0.00,VWS V14.01,2013-05-27 03:05:00,
2013-05-26 21:10:00,55.5,29.0,30.14,North,349,0.0,4.0,36,0.00,,---,0.00,VWS V14.01,2013-05-27 03:10:00,
2013-05-26 21:15:00,55.1,28.6,30.14,North,352,2.0,5.0,36,0.00,,---,0.00,VWS V14.01,2013-05-27 03:15:00,
2013-05-26 21:20:00,55.0,27.9,30.14,NNW,333,3.0,5.0,35,0.00,,---,0.00,VWS V14.01,2013-05-27 03:20:00,
2013-05-26 21:25:00,54.8,30.3,30.15,NW,326,3.0,7.0,39,0.00,,---,0.00,VWS V14.01,2013-05-27 03:25:00,
2013-05-26 21:30:00,54.4,29.3,30.14,NW,306,1.0,7.0,38,0.00,,---,0.00,VWS V14.01,2013-05-27 03:30:00,
2013-05-26 21:35:00,54.1,29.1,30.14,NNW,330,2.0,3.0,38,0.00,,---,0.00,VWS V14.01,2013-05-27 03:35:00,
2013-05-26 21:40:00,54.0,28.3,30.14,NW,322,4.0,6.0,37,0.00,,---,0.00,VWS V14.01,2013-05-27 03:40:00,
2013-05-26 21:45:00,54.7,27.6,30.14,North,356,3.0,6.0,35,0.00,,---,0.00,VWS V14.01,2013-05-27 03:45:00,
2013-05-26 21:50:00,54.8,27.0,30.14,North,11,1.0,6.0,34,0.00,,---,0.00,VWS V14.01,2013-05-27 03:50:00,
2013-05-26 21:55:00,54.8,28.4,30.15,West,274,1.0,6.0,36,0.00,,---,0.00,VWS V14.01,2013-05-27 03:55:00,
2013-05-26 22:00:00,55.1,28.0,30.15,NW,321,3.0,6.0,35,0.00,,---,0.00,VWS V14.01,2013-05-27 04:00:00,
2013-05-26 22:01:00,55.0,27.9,30.15,NW,323,5.0,6.0,35,0.00,,---,0.00,VWS V14.01,2013-05-27 04:01:00,
2013-05-26 22:06:00,55.1,28.0,30.15,WNW,293,3.0,4.0,35,0.00,,---,0.00,VWS V14.01,2013-05-27 04:06:00,
2013-05-26 22:11:00,55.4,26.8,30.15,West,274,1.0,4.0,33,0.00,,---,0.00,VWS V14.01,2013-05-27 04:11:00,
2013-05-26 22:16:00,55.7,27.8,30.15,NNW,340,2.0,7.0,34,0.00,,---,0.00,VWS V14.01,2013-05-27 04:16:00,
2013-05-26 22:21:00,55.4,27.5,30.15,NW,320,1.0,7.0,34,0.00,,---,0.00,VWS V14.01,2013-05-27 04:21:00,
2013-05-26 22:26:00,54.8,27.7,30.15,NW,326,4.0,7.0,35,0.00,,---,0.00,VWS V14.01,2013-05-27 04:26:00,
2013-05-26 22:31:00,54.6,28.2,30.15,NNW,330,4.0,7.0,36,0.00,,---,0.00,VWS V14.01,2013-05-27 04:31:00,
2013-05-26 22:36:00,54.2,27.2,30.15,NNW,330,2.0,6.0,35,0.00,,---,0.00,VWS V14.01,2013-05-27 04:36:00,
2013-05-26 22:41:00,53.4,27.1,30.15,NNW,339,3.0,6.0,36,0.00,,---,0.00,VWS V14.01,2013-05-27 04:41:00,
2013-05-26 22:46:00,53.6,27.3,30.15,WSW,256,1.0,6.0,36,0.00,,---,0.00,VWS V14.01,2013-05-27 04:46:00,
2013-05-26 22:51:00,53.2,27.0,30.15,North,6,3.0,6.0,36,0.00,,---,0.00,VWS V14.01,2013-05-27 04:51:00,
2013-05-26 22:56:00,53.2,27.0,30.15,WNW,303,1.0,6.0,36,0.00,,---,0.00,VWS V14.01,2013-05-27 04:56:00,
2013-05-26 23:01:00,53.4,27.1,30.15,NW,324,3.0,6.0,36,0.00,,---,0.00,VWS V14.01,2013-05-27 05:01:00,
2013-05-26 23:06:00,52.9,27.4,30.15,NW,306,1.0,3.0,37,0.00,,---,0.00,VWS V14.01,2013-05-27 05:06:00,
2013-05-26 23:11:00,52.6,27.1,30.15,NW,305,2.0,3.0,37,0.00,,---,0.00,VWS V14.01,2013-05-27 05:11:00,
2013-05-26 23:16:00,52.8,27.3,30.15,NW,308,2.0,3.0,37,0.00,,---,0.00,VWS V14.01,2013-05-27 05:16:00,
2013-05-26 23:21:00,52.1,27.3,30.14,NW,307,1.0,3.0,38,0.00,,---,0.00,VWS V14.01,2013-05-27 05:21:00,
2013-05-26 23:26:00,51.4,27.3,30.14,NW,308,1.0,3.0,39,0.00,,---,0.00,VWS V14.01,2013-05-27 05:26:00,
2013-05-26 23:31:00,51.8,27.0,30.14,NW,310,2.0,3.0,38,0.00,,---,0.00,VWS V14.01,2013-05-27 05:31:00,
2013-05-26 23:36:00,52.2,26.7,30.14,NNW,330,3.0,3.0,37,0.00,,---,0.00,VWS V14.01,2013-05-27 05:36:00,
2013-05-26 23:41:00,51.8,27.0,30.13,NNW,330,3.0,4.0,38,0.00,,---,0.00,VWS V14.01,2013-05-27 05:41:00,
2013-05-26 23:46:00,51.3,26.6,30.13,WNW,302,3.0,4.0,38,0.00,,---,0.00,VWS V14.01,2013-05-27 05:46:00,
2013-05-26 23:51:00,51.3,25.9,30.13,NNW,336,2.0,4.0,37,0.00,,---,0.00,VWS V14.01,2013-05-27 05:51:00,
2013-05-26 23:56:00,51.4,25.4,30.13,NNW,333,2.0,4.0,36,0.00,,---,0.00,VWS V14.01,2013-05-27 05:56:00,